Location: Unspecified
(44.0704°N, 88.6889°W)
Time: 19:10:31
(UTC+01:00)

Okean 3 - Visible Passes

Search period start: 22 November 2017 00:00
Search period end: 02 December 2017 00:00
Orbit: 576 x 603 km, 82.5° (Epoch: 22 November)

Date Brightness Start Highest point End Pass type
(mag) Time Alt. Az. Time Alt. Az. Time Alt. Az.
22 Nov 4.7 12:59:28 10° N 13:03:30 44° ENE 13:07:32 10° SSE visible
23 Nov 3.9 13:07:30 10° N 13:11:42 67° E 13:15:54 10° SSE visible
24 Nov 3.4 13:15:38 10° N 13:19:51 81° W 13:24:06 10° S visible
25 Nov 6.4 11:48:06 10° NE 11:50:23 14° ENE 11:52:40 10° E visible
25 Nov 3.6 13:23:52 10° NNW 13:27:59 53° W 13:32:07 10° S visible
26 Nov 6.0 11:55:33 10° NNE 11:58:43 20° ENE 12:01:52 10° ESE visible
26 Nov 4.1 13:32:13 10° NNW 13:36:05 35° W 13:39:56 10° SSW visible
27 Nov 5.8 01:59:48 10° SSW 02:00:32 15° SSW 02:00:32 15° SSW visible
27 Nov 5.4 12:03:18 10° NNE 12:07:00 29° ENE 12:10:43 10° SE visible
28 Nov 5.6 00:32:57 10° ESE 00:33:11 11° ESE 00:33:11 11° ESE visible
28 Nov 5.5 02:08:08 10° SSW 02:09:48 22° SW 02:09:48 22° SW visible
28 Nov 4.7 12:11:13 10° N 12:15:15 42° ENE 12:19:17 10° SSE visible
29 Nov 4.8 00:40:07 10° SE 00:42:26 20° ESE 00:42:26 20° ESE visible
29 Nov 5.5 02:16:40 10° SW 02:19:03 25° WSW 02:19:03 25° WSW visible
29 Nov 3.9 12:19:14 10° N 12:23:27 64° E 12:27:40 10° SSE visible
30 Nov 4.1 00:47:39 10° SSE 00:51:20 32° E 00:51:38 31° E visible
30 Nov 5.8 02:25:25 10° WSW 02:28:14 21° W 02:28:14 21° W visible
30 Nov 3.4 12:27:21 10° N 12:31:37 85° W 12:35:53 10° S visible
01 Dec 3.6 00:55:25 10° SSE 00:59:25 47° E 01:00:45 34° NE visible
01 Dec 6.2 02:34:31 10° WSW 02:36:58 15° WNW 02:37:21 15° WNW visible
01 Dec 6.5 10:59:57 10° NE 11:02:07 14° ENE 11:04:17 10° E visible
01 Dec 3.5 12:36:03 13° NNW 12:39:45 56° W 12:43:55 10° S visible
